Probability
1 0 0 0 0 0 0 0 0 0 0 0 0 0 0 0 0 0 0 0 0 0 0 0 0 0 0 0 0 0 0 0 0 0 0 0 0 0
2 1 0 0 0 0 0 0 0 0 0 0 0 0 0 0 0 0 0 0 0 0 0 0 0 0 0 0 0 0 0 0 0 0 0 0 0 0
2 1 0 0 0 0 0 0 0 0 0 0 0 0 0 0 0 0 0 0 0 0 0 0 0 0 0 0 0 0 0 0 0 0 0 0 0 0
1 0 0 0 0 0 0 0 0 0 0 0 0 0 0 0 0 0 0 0 0 0 0 0 0 0 0 0 0 0 0 0 0 0 0 0 0 0
0 0 0 0 0 0 0 0 0 0 0 0 0 0 0 0 0 0 0 0 0 0 0 0 0 0 0 0 0 0 0 0 0 0 0 0 0 0
0 0 0 0 0 0 0 0 0 0 0 0 0 0 0 0 0 0 0 0 0 0 0 0 0 0 0 0 0 0 0 0 0 0 0 0 0 0
0 0 0 0 0 0 0 0 0 0 0 0 0 0 0 0 0 0 0 0 0 0 0 0 0 0 0 0 0 0 0 0 0 0 0 0 0 0
0 0 0 0 0 0 0 0 0 0 0 0 0 0 0 0 0 0 0 0 0 0 0 0 0 0 0 0 0 0 0 0 0 0 0 0 0 0
0 0 0 0 0 0 0 0 0 0 0 0 0 0 0 0 0 0 0 0 0 0 0 0 0 0 0 0 0 0 0 0 0 0 0 0 0 0
0 0 0 0 0 0 0 0 0 0 0 0 0 0 0 0 0 0 0 0 0 0 0 0 0 0 0 0 0 0 0 0 0 0 0 0 0 0
0 0 0 0 0 0 0 0 0 0 0 0 0 0 0 0 0 0 0 0 0 0 0 0 0 0 0 0 0 0 0 0 0 0 0 0 0 0
0 0 0 0 0 0 0 0 0 0 0 0 0 0 0 0 0 0 0 0 0 0 0 0 0 0 0 0 0 0 0 0 0 0 0 0 0 0
0 0 0 0 0 0 0 0 0 0 0 0 0 0 0 0 0 0 0 0 0 0 0 0 0 0 0 0 0 0 0 0 0 0 0 0 0 0
0 0 0 0 0 0 0 0 0 0 0 0 0 0 0 0 0 0 0 0 0 0 0 0 0 0 0 0 0 0 0 0 0 0 0 0 0 0
0 0 0 0 0 0 0 0 0 0 0 0 0 0 0 0 0 0 0 0 0 0 0 0 0 0 0 0 0 0 0 0 0 0 0 0 0 0
0 0 0 0 0 0 0 0 0 0 0 0 0 0 0 0 0 0 0 0 0 0 0 0 0 0 0 0 0 0 0 0 0 0 0 0 0 0
0 0 0 0 0 0 0 0 0 0 0 0 0 0 0 0 0 0 0 0 0 0 0 0 0 0 0 0 0 0 0 0 0 0 0 0 0 0
0 0 0 0 0 0 0 0 0 0 0 0 0 0 0 0 0 0 0 0 0 0 0 0 0 0 0 0 0 0 0 0 0 0 0 0 0 0
0 0 0 0 0 0 0 0 0 0 0 0 0 0 0 0 0 0 0 0 0 0 0 0 0 0 0 0 0 0 0 0 0 0 0 0 0 0
0 0 0 0 0 0 0 0 0 0 0 0 0 0 0 0 0 0 0 0 0 0 0 0 0 0 0 0 0 0 0 0 0 0 0 0 0 0
0 0 0 0 0 0 0 0 0 0 0 0 0 0 0 0 0 0 0 0 0 0 0 0 0 0 0 0 0 0 0 0 0 0 0 0 0 0
0 0 0 0 0 0 0 0 0 0 0 0 0 0 0 0 0 0 0 0 0 0 0 0 0 0 0 0 0 0 0 0 0 0 0 0 0 0
0 0 0 0 0 0 0 0 0 0 0 0 0 0 0 0 0 0 0 0 0 0 0 0 0 0 0 0 0 0 0 0 0 0 0 0 0 0
Wind_Speed
7 7 7 5 5 5 5 5 5 7 8 6 4 5 5 5 8 8 8 13 16 16 15 15 15 15 15 14 14 14 13 13 13 13 14 15 15 15
6 7 7 5 5 5 5 5 5 6 8 5 5 4 5 6 9 8 9 13 15 16 15 15 15 14 14 14 14 13 13 13 13 14 15 15 15 14
7 8 9 7 6 5 5 5 5 5 8 6 4 4 5 6 5 5 6 7 7 13 15 14 14 14 14 14 13 13 13 13 13 14 15 15 14 14
9 8 9 6 7 6 5 6 6 6 6 8 5 4 6 6 6 6 5 5 5 10 12 13 13 13 13 13 13 13 13 12 13 13 13 14 14 14
9 9 9 8 8 6 7 7 6 6 5 6 6 4 4 4 4 4 5 4 4 6 9 11 12 12 12 12 12 12 12 12 12 12 12 12 12 13
8 8 9 9 10 8 7 8 6 6 5 5 5 4 4 4 4 4 4 4 4 4 6 7 9 10 11 12 12 12 12 12 12 12 12 11 11 12
7 8 9 10 12 10 8 7 7 6 6 6 5 4 4 4 5 4 5 3 3 3 3 3 3 4 5 9 10 11 12 12 12 12 12 11 11 12
8 8 8 9 11 13 14 13 11 9 8 7 6 7 7 5 4 4 4 3 4 3 3 3 2 4 4 4 8 11 11 12 12 12 12 12 12 12
8 8 7 8 10 8 11 13 13 15 14 10 9 9 7 7 6 6 6 5 5 3 2 3 2 4 3 5 9 11 11 11 12 12 12 12 12 11
8 9 9 9 9 9 8 8 9 9 11 9 9 9 8 7 7 7 6 4 2 2 3 3 3 3 3 4 9 11 11 11 11 11 11 11 10 10
8 8 9 9 12 12 9 8 8 7 8 10 11 9 10 10 7 4 4 4 3 3 3 3 2 2 3 3 5 8 9 10 11 11 10 9 9 8
6 7 11 11 12 11 8 8 9 7 5 5 6 7 7 8 10 8 7 6 4 3 4 3 2 1 2 2 2 2 4 7 9 9 9 9 7 4
5 5 6 10 12 13 10 8 9 7 5 5 4 4 4 4 5 5 5 6 5 4 5 4 3 2 2 2 2 2 2 2 3 5 6 8 7 5
6 5 5 10 12 12 9 8 9 6 3 3 4 4 4 4 3 3 3 3 4 5 6 5 4 4 3 3 3 2 1 2 2 2 2 4 5 6
5 8 10 12 11 8 8 9 7 4 4 4 4 4 3 3 3 2 1 2 1 1 3 3 4 4 3 4 3 2 1 2 2 2 2 3 3 2
5 7 10 9 7 7 7 5 4 4 4 4 4 3 2 2 3 3 3 2 1 1 0 2 4 5 3 3 3 3 3 2 2 2 2 2 2 2
5 4 3 3 3 3 3 3 3 3 3 3 3 3 3 3 2 3 3 2 2 2 1 1 2 2 2 3 3 3 2 2 2 2 2 1 1 2
6 3 3 3 3 3 3 3 2 3 3 3 3 3 3 3 3 2 3 3 3 3 3 3 3 2 0 1 2 3 2 2 2 2 2 2 1 1
4 3 3 3 3 3 3 3 3 3 3 3 3 3 3 3 3 3 3 2 2 3 3 3 3 3 3 2 1 1 3 2 3 2 2 2 2 2
3 3 4 3 3 3 3 3 2 2 2 2 3 3 3 3 3 3 3 3 3 2 2 2 3 3 4 3 2 1 2 3 3 3 2 2 2 1
3 3 3 3 3 3 3 2 3 2 2 2 2 3 3 3 3 3 3 4 3 3 3 3 2 3 2 3 3 2 2 3 3 3 3 3 2 2
3 3 3 3 3 3 2 2 2 2 2 2 2 2 3 3 4 4 4 4 3 3 2 2 3 3 3 3 3 3 3 4 5 6 3 3 3 3
3 3 3 3 3 2 2 2 2 2 2 2 2 2 2 2 3 3 3 3 3 3 4 3 3 3 3 3 4 4 5 4 3 4 4 4 5 5
Wind_Direction
229 229 234 233 226 232 233 230 243 263 259 245 236 225 224 227 226 220 227 231 231 232 232 232 233 234 236 237 238 240 239 239 239 241 245 250 253 256
228 230 236 235 230 230 231 233 234 249 263 248 238 231 225 234 232 226 227 232 231 232 232 231 232 234 234 233 233 234 236 239 240 243 246 249 254 257
234 231 235 233 233 233 234 234 235 238 259 268 250 239 227 235 236 229 231 229 231 232 232 232 232 232 232 231 232 233 235 238 241 244 247 249 252 255
233 232 236 236 235 234 233 236 237 235 243 262 262 243 233 230 229 229 236 235 233 233 231 230 230 230 231 232 231 231 233 237 240 243 247 250 252 254
234 232 234 231 237 238 235 238 240 244 238 248 257 251 242 230 230 236 235 239 241 237 231 230 229 230 232 232 231 231 231 234 238 240 244 248 252 256
239 237 236 231 233 234 237 238 240 241 240 243 253 253 242 230 214 223 236 232 240 241 238 235 231 232 233 233 233 231 230 231 235 239 241 245 249 254
244 241 241 242 241 239 240 235 233 237 237 239 244 248 243 224 220 213 230 235 249 226 225 232 227 231 231 235 234 231 231 232 236 239 241 244 247 252
243 244 247 246 245 248 250 247 239 234 234 235 236 235 237 233 226 214 217 220 246 209 201 245 220 237 239 235 234 232 232 235 237 240 243 245 248 252
242 244 252 254 254 247 250 251 246 241 235 233 235 235 231 222 216 220 218 219 234 207 188 248 230 244 243 240 234 232 232 234 238 242 245 248 249 249
243 243 246 250 250 249 247 249 248 242 235 232 234 234 232 219 215 223 217 218 233 212 186 230 235 246 258 246 233 228 231 235 239 242 243 244 245 246
249 248 246 248 253 253 247 249 254 249 241 238 238 238 233 226 218 206 198 193 235 236 199 203 218 249 262 257 239 228 230 237 239 238 238 241 242 238
257 251 251 255 261 260 250 242 248 246 237 242 243 239 229 220 218 214 203 204 214 229 198 186 198 192 265 255 248 237 237 241 237 236 238 237 232 225
266 261 256 264 268 265 261 247 245 249 231 225 230 231 225 211 211 215 211 206 208 222 189 177 194 202 217 259 268 245 228 235 234 235 236 231 226 217
266 266 269 275 276 271 263 256 257 254 227 219 221 223 221 214 208 209 214 220 229 219 192 185 195 199 205 242 257 244 237 226 214 224 224 221 226 229
270 274 279 279 278 271 267 265 255 235 216 222 224 227 217 202 186 183 184 178 184 216 202 204 190 189 204 220 228 225 240 241 205 198 202 208 206 203
284 283 286 280 274 271 273 262 238 224 218 218 216 213 197 191 195 190 191 176 165 250 205 184 185 183 203 217 216 226 212 206 197 190 189 207 202 194
296 292 288 284 280 275 266 261 239 223 228 210 202 196 197 197 204 195 185 179 196 201 194 137 122 134 188 203 215 212 194 191 185 169 165 185 207 193
301 287 284 279 277 273 268 263 243 223 218 207 199 192 192 194 199 187 176 182 192 192 183 170 152 133 96 313 226 195 175 172 165 164 157 161 205 194
291 279 276 274 273 274 269 265 259 245 221 203 198 193 189 192 190 186 181 182 191 191 184 177 177 176 190 230 257 177 169 159 150 149 150 151 187 203
279 277 279 279 277 271 267 264 262 254 226 209 196 191 187 188 188 185 185 188 194 190 183 176 185 193 200 194 173 150 158 160 153 151 133 100 90 97
291 283 280 279 278 273 270 260 255 245 229 212 200 196 191 188 191 186 181 182 189 188 189 194 187 154 116 103 103 86 73 99 136 153 143 123 104 97
291 290 288 283 278 271 267 266 259 249 233 219 207 203 198 191 187 182 179 180 187 183 170 142 128 126 122 137 137 125 100 78 78 81 90 143 154 165
294 292 289 286 277 273 269 258 250 240 232 223 206 201 197 188 182 179 177 176 171 158 142 138 133 118 115 127 128 122 116 109 97 86 63 68 90 101